| time (UTC) | temp C | wind direction | speed KPH | gust KPH | rain 1hr cm | rain 24hr cm | rain mn cm | humidity % | barometer mb |
| 20260902230029 | 25 | 0.0 | 0.0 | 0.00 | 0.00 | 0.00 | 89 | 1019.8 | |
| 20260902225024 | 25 | 0.0 | 0.0 | 0.00 | 0.00 | 0.00 | 89 | 1019.9 | |
| 20260902224019 | 25 | 0.0 | 0.0 | 0.00 | 0.00 | 0.00 | 89 | 1019.8 | |
| 20260902223035 | 25 | 0.0 | 0.0 | 0.00 | 0.00 | 0.00 | 89 | 1019.8 | |
| 20260902222030 | 25 | 0.0 | 0.0 | 0.00 | 0.00 | 0.00 | 88 | 1019.8 | |
| 20260902221026 | 25 | 0.0 | 0.0 | 0.00 | 0.00 | 0.00 | 88 | 1019.8 | |
| 20260902215016 | 26 | 0.0 | 0.0 | 0.00 | 0.00 | 0.00 | 88 | 1019.8 | |
| 20260902214032 | 26 | 87 | 0.0 | 1.6 | 0.00 | 0.00 | 0.00 | 88 | 1019.7 |
| 20260902213047 | 26 | 78 | 0.0 | 1.6 | 0.00 | 0.00 | 0.00 | 88 | 1019.7 |
| 20260902212022 | 26 | 109 | 0.0 | 3.2 | 0.00 | 0.00 | 0.00 | 88 | 1019.8 |
| 20260902211018 | 26 | 138 | 1.6 | 3.2 | 0.00 | 0.00 | 0.00 | 88 | 1019.8 |
| 20260902210033 | 26 | 93 | 0.0 | 1.6 | 0.00 | 0.00 | 0.00 | 87 | 1019.8 |
| 20260902205029 | 26 | 109 | 1.6 | 3.2 | 0.00 | 0.00 | 0.00 | 87 | 1019.6 |
| 20260902204024 | 25 | 104 | 0.0 | 3.2 | 0.00 | 0.00 | 0.00 | 88 | 1019.5 |
| 20260902203019 | 25 | 83 | 0.0 | 1.6 | 0.00 | 0.00 | 0.00 | 88 | 1019.5 |
| 20260902202035 | 25 | 0.0 | 0.0 | 0.00 | 0.00 | 0.00 | 88 | 1019.4 | |
| 20260902201030 | 25 | 84 | 1.6 | 3.2 | 0.00 | 0.00 | 0.00 | 88 | 1019.3 |
| 20260902200045 | 25 | 85 | 3.2 | 4.8 | 0.00 | 0.00 | 0.00 | 88 | 1019.1 |
| 20260902195021 | 25 | 86 | 3.2 | 4.8 | 0.00 | 0.00 | 0.00 | 87 | 1018.9 |
| 20260902194016 | 26 | 92 | 3.2 | 4.8 | 0.00 | 0.00 | 0.00 | 87 | 1018.7 |
| 20260902193031 | 26 | 92 | 3.2 | 6.4 | 0.00 | 0.00 | 0.00 | 86 | 1018.6 |
| 20260902192026 | 26 | 89 | 1.6 | 4.8 | 0.00 | 0.00 | 0.00 | 86 | 1018.4 |
| 20260902191022 | 26 | 56 | 1.6 | 4.8 | 0.00 | 0.00 | 0.00 | 85 | 1018.3 |
| 20260902190017 | 26 | 68 | 1.6 | 6.4 | 0.00 | 0.00 | 0.00 | 85 | 1017.9 |
| 20260902185033 | 26 | 81 | 3.2 | 9.7 | 0.00 | 0.00 | 0.00 | 85 | 1018.1 |
| 20260902184028 | 26 | 85 | 4.8 | 9.7 | 0.00 | 0.00 | 0.00 | 85 | 1018.0 |
| 20260902183023 | 26 | 94 | 6.4 | 11.3 | 0.00 | 0.00 | 0.00 | 85 | 1017.9 |
| 20260902182018 | 26 | 82 | 3.2 | 11.3 | 0.00 | 0.00 | 0.00 | 84 | 1018.0 |
| 20260902181033 | 26 | 88 | 4.8 | 11.3 | 0.00 | 0.00 | 0.00 | 83 | 1018.1 |
| 20260902180029 | 26 | 97 | 6.4 | 14.5 | 0.00 | 0.00 | 0.00 | 82 | 1018.0 |
| 20260902175044 | 26 | 89 | 6.4 | 16.1 | 0.00 | 0.00 | 0.00 | 80 | 1018.0 |
| 20260902174019 | 27 | 94 | 6.4 | 16.1 | 0.00 | 0.00 | 0.00 | 78 | 1018.1 |
| 20260902173054 | 27 | 116 | 6.4 | 14.5 | 0.00 | 0.00 | 0.00 | 78 | 1017.8 |
| 20260902172029 | 27 | 99 | 6.4 | 16.1 | 0.00 | 0.00 | 0.00 | 78 | 1018.0 |
| 20260902171024 | 27 | 108 | 8.0 | 16.1 | 0.00 | 0.00 | 0.00 | 77 | 1017.8 |
| 20260902170040 | 27 | 118 | 8.0 | 16.1 | 0.00 | 0.00 | 0.00 | 77 | 1017.9 |
| 20260902165035 | 27 | 113 | 8.0 | 16.1 | 0.00 | 0.00 | 0.00 | 76 | 1017.8 |
| 20260902164030 | 27 | 103 | 9.7 | 16.1 | 0.00 | 0.00 | 0.00 | 76 | 1017.9 |
| 20260902163026 | 27 | 91 | 6.4 | 16.1 | 0.00 | 0.00 | 0.00 | 76 | 1017.8 |
| 20260902162021 | 28 | 92 | 9.7 | 16.1 | 0.00 | 0.00 | 0.00 | 74 | 1017.8 |
| 20260902161018 | 27 | 109 | 9.7 | 16.1 | 0.00 | 0.00 | 0.00 | 76 | 1017.8 |
| 20260902160032 | 27 | 99 | 9.7 | 14.5 | 0.00 | 0.00 | 0.00 | 76 | 1017.8 |
| 20260902155027 | 27 | 100 | 8.0 | 17.7 | 0.00 | 0.00 | 0.00 | 76 | 1017.8 |
| 20260902154022 | 27 | 127 | 12.9 | 22.5 | 0.00 | 0.00 | 0.00 | 76 | 1017.9 |
| 20260902153018 | 27 | 118 | 9.7 | 20.9 | 0.00 | 0.00 | 0.00 | 76 | 1017.9 |
| 20260902152033 | 27 | 111 | 9.7 | 17.7 | 0.00 | 0.00 | 0.00 | 76 | 1018.0 |
| 20260902151028 | 27 | 99 | 11.3 | 20.9 | 0.00 | 0.00 | 0.00 | 76 | 1018.0 |
| 20260902150024 | 27 | 95 | 9.7 | 24.1 | 0.00 | 0.00 | 0.00 | 76 | 1018.0 |
| 20260902145019 | 27 | 108 | 11.3 | 25.7 | 0.00 | 0.00 | 0.00 | 75 | 1018.1 |
| 20260902144034 | 28 | 103 | 12.9 | 24.1 | 0.00 | 0.00 | 0.00 | 75 | 1018.3 |
| 20260902143030 | 28 | 123 | 11.3 | 24.1 | 0.00 | 0.00 | 0.00 | 74 | 1018.4 |
| 20260902142025 | 28 | 118 | 11.3 | 24.1 | 0.00 | 0.00 | 0.00 | 73 | 1018.3 |
| 20260902141020 | 27 | 118 | 12.9 | 25.7 | 0.00 | 0.00 | 0.00 | 74 | 1018.4 |
| 20260902140016 | 28 | 105 | 11.3 | 20.9 | 0.00 | 0.00 | 0.00 | 73 | 1018.6 |
| 20260902135032 | 27 | 122 | 12.9 | 22.5 | 0.00 | 0.00 | 0.00 | 75 | 1018.5 |
| 20260902134027 | 27 | 126 | 14.5 | 24.1 | 0.00 | 0.00 | 0.00 | 75 | 1018.5 |
| 20260902133023 | 28 | 96 | 11.3 | 22.5 | 0.00 | 0.00 | 0.00 | 75 | 1018.5 |
| 20260902132018 | 28 | 114 | 11.3 | 27.4 | 0.00 | 0.00 | 0.00 | 75 | 1018.5 |
| 20260902131033 | 27 | 118 | 12.9 | 24.1 | 0.00 | 0.00 | 0.00 | 75 | 1018.6 |
| 20260902130028 | 28 | 111 | 8.0 | 16.1 | 0.00 | 0.00 | 0.00 | 73 | 1018.8 |
| 20260902125044 | 28 | 119 | 11.3 | 22.5 | 0.00 | 0.00 | 0.00 | 73 | 1018.8 |
| 20260902124018 | 28 | 126 | 11.3 | 22.5 | 0.00 | 0.00 | 0.00 | 73 | 1018.7 |
| 20260902123033 | 28 | 120 | 12.9 | 20.9 | 0.00 | 0.00 | 0.00 | 72 | 1018.8 |
| 20260902122028 | 28 | 105 | 9.7 | 20.9 | 0.00 | 0.00 | 0.00 | 72 | 1019.0 |
| 20260902121044 | 28 | 110 | 9.7 | 16.1 | 0.00 | 0.00 | 0.00 | 69 | 1018.9 |
| 20260902120019 | 28 | 110 | 6.4 | 17.7 | 0.00 | 0.00 | 0.00 | 70 | 1018.9 |
| 20260902115034 | 28 | 113 | 3.2 | 12.9 | 0.00 | 0.00 | 0.00 | 70 | 1019.0 |
| 20260902114050 | 28 | 127 | 8.0 | 20.9 | 0.00 | 0.00 | 0.00 | 71 | 1019.2 |
| 20260902113025 | 28 | 156 | 8.0 | 16.1 | 0.00 | 0.00 | 0.00 | 72 | 1019.2 |
| 20260902112020 | 28 | 112 | 4.8 | 17.7 | 0.00 | 0.00 | 0.00 | 71 | 1019.3 |
| 20260902111016 | 28 | 137 | 9.7 | 17.7 | 0.00 | 0.00 | 0.00 | 72 | 1019.2 |
| 20260902110031 | 27 | 95 | 6.4 | 12.9 | 0.00 | 0.00 | 0.00 | 73 | 1019.4 |
| 20260902105027 | 27 | 98 | 8.0 | 14.5 | 0.00 | 0.00 | 0.00 | 73 | 1019.3 |
| 20260902104022 | 27 | 109 | 8.0 | 14.5 | 0.00 | 0.00 | 0.00 | 75 | 1019.3 |
| 20260902103037 | 27 | 101 | 4.8 | 16.1 | 0.00 | 0.00 | 0.00 | 75 | 1019.5 |
| 20260902102032 | 27 | 114 | 4.8 | 12.9 | 0.00 | 0.00 | 0.00 | 75 | 1019.5 |
| 20260902101027 | 27 | 114 | 8.0 | 17.7 | 0.00 | 0.00 | 0.00 | 74 | 1019.5 |
| 20260902100043 | 27 | 105 | 11.3 | 20.9 | 0.00 | 0.00 | 0.00 | 75 | 1019.5 |
| 20260902095018 | 27 | 113 | 9.7 | 16.1 | 0.00 | 0.00 | 0.00 | 74 | 1019.4 |
| 20260902094033 | 27 | 121 | 8.0 | 16.1 | 0.00 | 0.00 | 0.00 | 73 | 1019.4 |
| 20260902093028 | 27 | 113 | 8.0 | 20.9 | 0.00 | 0.00 | 0.00 | 72 | 1019.3 |
| 20260902092024 | 26 | 119 | 11.3 | 17.7 | 0.00 | 0.00 | 0.00 | 73 | 1019.4 |
| 20260902091019 | 27 | 128 | 6.4 | 14.5 | 0.00 | 0.00 | 0.00 | 71 | 1019.2 |
| 20260902090035 | 26 | 89 | 4.8 | 11.3 | 0.00 | 0.00 | 0.00 | 73 | 1019.1 |
| 20260902085030 | 27 | 96 | 3.2 | 9.7 | 0.00 | 0.00 | 0.00 | 69 | 1019.0 |
| 20260902084025 | 26 | 95 | 1.6 | 6.4 | 0.00 | 0.00 | 0.00 | 71 | 1018.7 |
| 20260902083021 | 26 | 98 | 3.2 | 6.4 | 0.00 | 0.00 | 0.00 | 71 | 1018.6 |
| 20260902082036 | 27 | 119 | 3.2 | 4.8 | 0.00 | 0.00 | 0.00 | 68 | 1018.6 |
| 20260902081031 | 26 | 111 | 1.6 | 4.8 | 0.00 | 0.00 | 0.00 | 70 | 1018.5 |
| 20260902080047 | 26 | 111 | 1.6 | 3.2 | 0.00 | 0.00 | 0.00 | 71 | 1018.4 |
| 20260902075041 | 26 | 97 | 3.2 | 4.8 | 0.00 | 0.00 | 0.00 | 71 | 1018.4 |
| 20260902074017 | 26 | 92 | 0.0 | 3.2 | 0.00 | 0.00 | 0.00 | 70 | 1018.3 |
| 20260902073032 | 26 | 100 | 1.6 | 3.2 | 0.00 | 0.00 | 0.00 | 68 | 1018.4 |
| 20260902072028 | 26 | 0.0 | 0.0 | 0.00 | 0.00 | 0.00 | 71 | 1018.1 | |
| 20260902071024 | 25 | 0.0 | 0.0 | 0.00 | 0.00 | 0.00 | 74 | 1018.0 | |
| 20260902070018 | 24 | 0.0 | 0.0 | 0.00 | 0.00 | 0.00 | 77 | 1018.0 | |
| 20260902065033 | 23 | 86 | 0.0 | 1.6 | 0.00 | 0.00 | 0.00 | 78 | 1017.8 |
| 20260902064028 | 23 | 75 | 0.0 | 1.6 | 0.00 | 0.00 | 0.00 | 80 | 1017.8 |
| 20260902063023 | 23 | 69 | 0.0 | 1.6 | 0.00 | 0.00 | 0.00 | 80 | 1017.7 |
| 20260902062018 | 23 | 32 | 0.0 | 1.6 | 0.00 | 0.00 | 0.00 | 79 | 1017.5 |
| 20260902061115 | 22 | 351 | 0.0 | 3.2 | 0.00 | 0.00 | 0.00 | 80 | 1017.5 |
| 20260902060028 | 22 | 317 | 3.2 | 6.4 | 0.00 | 0.00 | 0.00 | 80 | 1017.4 |
| 20260902055024 | 22 | 285 | 1.6 | 4.8 | 0.00 | 0.00 | 0.00 | 81 | 1017.4 |
| 20260902054019 | 22 | 280 | 1.6 | 4.8 | 0.00 | 0.00 | 0.00 | 81 | 1017.2 |
| 20260902053035 | 22 | 293 | 1.6 | 4.8 | 0.00 | 0.00 | 0.00 | 81 | 1017.1 |
| 20260902052029 | 22 | 293 | 3.2 | 11.3 | 0.00 | 0.00 | 0.00 | 81 | 1017.0 |
| 20260902051024 | 22 | 301 | 1.6 | 4.8 | 0.00 | 0.00 | 0.00 | 81 | 1017.1 |
| 20260902050020 | 22 | 274 | 3.2 | 6.4 | 0.00 | 0.00 | 0.00 | 81 | 1017.0 |
| 20260902045055 | 22 | 303 | 1.6 | 3.2 | 0.00 | 0.00 | 0.00 | 82 | 1017.1 |
| 20260902044030 | 23 | 319 | 4.8 | 6.4 | 0.00 | 0.00 | 0.00 | 81 | 1017.0 |
| 20260902043045 | 23 | 308 | 3.2 | 6.4 | 0.00 | 0.00 | 0.00 | 81 | 1016.8 |
| 20260902042020 | 23 | 316 | 3.2 | 6.4 | 0.00 | 0.00 | 0.00 | 81 | 1016.8 |
| 20260902041015 | 23 | 325 | 3.2 | 4.8 | 0.00 | 0.00 | 0.00 | 81 | 1017.1 |
| 20260902040052 | 23 | 316 | 0.0 | 1.6 | 0.00 | 0.00 | 0.00 | 81 | 1017.1 |
| 20260902035026 | 23 | 314 | 0.0 | 1.6 | 0.00 | 0.00 | 0.00 | 81 | 1017.2 |
| 20260902034021 | 23 | 2 | 0.0 | 3.2 | 0.00 | 0.00 | 0.00 | 81 | 1017.2 |
| 20260902033017 | 23 | 321 | 1.6 | 4.8 | 0.00 | 0.00 | 0.00 | 80 | 1017.3 |
| 20260902032032 | 23 | 296 | 3.2 | 6.4 | 0.00 | 0.00 | 0.00 | 80 | 1017.2 |
| 20260902031028 | 23 | 313 | 3.2 | 4.8 | 0.00 | 0.00 | 0.00 | 80 | 1017.3 |
| 20260902030023 | 23 | 302 | 3.2 | 4.8 | 0.00 | 0.00 | 0.00 | 81 | 1017.2 |
| 20260902025018 | 23 | 323 | 0.0 | 4.8 | 0.00 | 0.00 | 0.00 | 82 | 1017.2 |
| 20260902024034 | 23 | 329 | 0.0 | 3.2 | 0.00 | 0.00 | 0.00 | 83 | 1017.3 |
| 20260902023029 | 23 | 335 | 0.0 | 3.2 | 0.00 | 0.00 | 0.00 | 84 | 1017.2 |
| 20260902022024 | 23 | 349 | 1.6 | 3.2 | 0.00 | 0.00 | 0.00 | 84 | 1017.3 |
| 20260902021019 | 23 | 0.0 | 0.0 | 0.00 | 0.00 | 0.00 | 85 | 1017.2 | |
| 20260902020054 | 23 | 0.0 | 0.0 | 0.00 | 0.00 | 0.00 | 84 | 1017.3 | |
| 20260902015050 | 23 | 0.0 | 0.0 | 0.00 | 0.00 | 0.00 | 84 | 1017.4 | |
| 20260902014026 | 23 | 335 | 0.0 | 1.6 | 0.00 | 0.00 | 0.00 | 84 | 1017.4 |
| 20260902013020 | 23 | 303 | 1.6 | 3.2 | 0.00 | 0.00 | 0.00 | 84 | 1017.6 |
| 20260902012016 | 23 | 300 | 1.6 | 1.6 | 0.00 | 0.00 | 0.00 | 85 | 1017.5 |
| 20260902011051 | 23 | 301 | 3.2 | 4.8 | 0.00 | 0.00 | 0.00 | 86 | 1017.6 |
| 20260902010026 | 23 | 307 | 1.6 | 4.8 | 0.00 | 0.00 | 0.00 | 86 | 1017.6 |
| 20260902005021 | 23 | 324 | 0.0 | 1.6 | 0.00 | 0.00 | 0.00 | 87 | 1017.6 |
| 20260902004016 | 23 | 319 | 1.6 | 3.2 | 0.00 | 0.00 | 0.00 | 87 | 1017.7 |
| 20260902003031 | 23 | 318 | 1.6 | 3.2 | 0.00 | 0.00 | 0.00 | 87 | 1017.8 |
| 20260902002107 | 24 | 0.0 | 0.0 | 0.00 | 0.00 | 0.00 | 87 | 1017.8 | |
| 20260902001022 | 24 | 334 | 0.0 | 1.6 | 0.00 | 0.00 | 0.00 | 87 | 1017.8 |
| 20260902000017 | 24 | 0.0 | 0.0 | 0.00 | 0.00 | 0.00 | 87 | 1017.8 | |
| 20260901235033 | 23 | 0 | 1.6 | 1.6 | 0.00 | 0.00 | 0.00 | 87 | 1017.7 |
| 20260901234028 | 23 | 356 | 0.0 | 1.6 | 0.00 | 0.00 | 0.00 | 87 | 1017.7 |
| 20260901233023 | 23 | 353 | 1.6 | 3.2 | 0.00 | 0.00 | 0.00 | 87 | 1017.7 |
| 20260901232019 | -17 | 0.0 | 0.0 | 0.00 | 0.00 | 0.00 | 1017.6 | ||
| 20260901231034 | -17 | 0.0 | 0.0 | 0.00 | 0.00 | 0.00 | 1017.7 |